Regional Weather Roundup
Issued by NWS Green Bay, WI

Home | Current Version | Previous Version | Graphics & Text | Print | Product List | Glossary Off
Versions: 1 2 3 4 5 6 7 8 9 10 11 12 13 14 15 16 17 18 19 20 21 22 23 24 25 26 27 28 29 30 31 32 33 34 35 36 37 38 39 40 41 42 43 44 45 46 47 48 49 50

000
ASUS43 KGRB 231359
RWRGRB

NORTH-CENTRAL AND NORTHEAST WISCONSIN REGIONAL WEATHER ROUNDUP
NATIONAL WEATHER SERVICE GREEN BAY WI
900 AM CDT WED APR 23 2014

WIZ005-009-010>012-018-019-231500-
NORTH CENTRAL WISCONSIN

CITY           SKY/WX    TMP DP  RH WIND       PRES   REMARKS
IRONWOOD       MOSUNNY   41  25  52 CALM      30.12F
MANITOWISH WTR NOT AVBL
ARBOR VITAE    NOT AVBL
EAGLE RIVER    NOT AVBL
LAND O LAKES   NOT AVBL
RHINELANDER    MOSUNNY   37  26  64 E5        30.16F
PHILLIPS       NOT AVBL
ANTIGO         NOT AVBL
TOMAHAWK       NOT AVBL
MERRILL        NOT AVBL
$$

WIZ013-073-231500-
NORTHEAST WISCONSIN

CITY           SKY/WX    TMP DP  RH WIND       PRES   REMARKS
IRON MOUNTAIN  MOSUNNY   39  24  55 N3        30.16S
MARINETTE      MOSUNNY   39  23  52 NE7       30.19R
$$

WIZ017-030-035>037-045-231500-
CENTRAL WISCONSIN

CITY           SKY/WX    TMP DP  RH WIND       PRES   REMARKS
MEDFORD        NOT AVBL
WAUSAU         PTSUNNY   40  27  59 E10       30.14F
MOSINEE        SUNNY     39  28  65 E6        30.17R
MARSHFIELD     PTSUNNY   41  27  57 SE10      30.15S
WISC RAPIDS    PTSUNNY   42  26  53 E9        30.18S
STEVENS POINT  NOT AVBL
WAUPACA        NOT AVBL
SHAWANO        NOT AVBL
CLINTONVILLE   NOT AVBL
$$

WIZ038-039-048-051-231500-
FOX VALLEY

CITY           SKY/WX    TMP DP  RH WIND       PRES   REMARKS
NWS GREEN BAY  MOSUNNY   39  27  62 NE7       30.19F
APPLETON       MOSUNNY   37  27  65 NE7       30.19S
OSHKOSH        MOSUNNY   39  26  59 NE8       30.18R
FOND DU LAC    MOSUNNY   40  27  59 N6        30.18R
$$

WIZ022-050-052-231500-
EAST CENTRAL WISCONSIN

CITY           SKY/WX    TMP DP  RH WIND       PRES   REMARKS
STURGEON BAY   MOSUNNY   36  25  64 N7        30.19R
MANITOWOC      NOT AVBL
SHEBOYGAN      MOSUNNY   41  28  60 NE9       30.18S
$$

LMZ563-521-522-541>543-231500-
LAKESHORE

STATION/POSITION TIME  TEMP    WIND        PRES    VSBY  WAVE
                       AIR SEA DIR/SP/G                  HT/PER
                 (UTC) (F)     (DEG/KT/KT) (MB)    (MI)  (FT/S)
SHEBOYGAN LKSHOR 1300   38     360/ 10/ 12 1022.8R
KEWAUNEE LKSHORE 1300   39     360/  4/  6 1022.9R
NORTHPORT PIER   1300   33     300/  5/  9 1022.4S
SISTER BAY LKSHO 1300   36     350/  8/  9   N/A
MENOMINEE LKSHOR 1300   34     360/  8/  9 1022.7F
$$



USA.gov is the U.S. government's official web portal to all federal, state and local government web resources and services.